Tracking 29892 objects as of 21-Nov-2024
HD Live streaming from Space Station
objects crossing your sky now

STARLINK-32322

Track STARLINK-32322 now!
10-day predictions
STARLINK-32322 is classified as:


NORAD ID: 61720
Int'l Code: 2024-196P
Perigee: 371.0 km
Apogee: 372.2 km
Inclination: 53.2 °
Period: 91.8 minutes
Semi major axis: 6742 km
RCS: Unknown
Launch date: October 30, 2024
Source: United States (US)
Launch site: AIR FORCE EASTERN TEST RANGE (AFETR)
Your satellite tracking list
Your tracking list is empty




NASA's NSSDC Master Catalog

Two Line Element Set (TLE):
1 61720U 24196P   24325.91668981 -.01381391  00000-0 -13772-1 0  9991
2 61720  53.1596 147.6515 0000905  63.1955 164.9586 15.68053055  4583
Source of the keplerian elements: AFSPC